{"data":{"norad_id":55751,"intl_designator":"2023-028L","name":"STARLINK-5577","alt_names":[],"object_type":"PAYLOAD","status":"ACTIVE","operator":null,"country":"US","launch_date":"2023-03-03","launch_site_code":"AFWTR","launch_vehicle":null,"mission":null,"orbit_class":"UNKNOWN","rcs_meters":null,"size_class":null,"mass_kg":null,"dimensions":null,"purposes":["comms"],"wikipedia_slug":null,"has_3d_model":false,"image_url":null,"decayed_at":null,"tle_current":{"epoch":"2026-05-25T04:02:08.596320Z","epoch_age_seconds":67281,"freshness":"FRESH","line1":"1 55751U 23028L   26145.16815505  .00000269  00000+0  30311-4 0  9995","line2":"2 55751  70.0008  51.7191 0002900 269.2614  90.8212 14.98331427177497","mean_motion":14.98331427,"eccentricity":0.00029,"inclination_deg":70.0008,"raan_deg":51.7191,"arg_perigee_deg":269.2614,"mean_anomaly_deg":90.8212,"bstar":3.0311e-5,"rev_number":17749,"period_min":96.106907594083,"perigee_km":570.03592340949,"apogee_km":574.06703272677,"semimajor_km":6950.1884780681,"source":"CELESTRAK","updated_at":"2026-05-25T13:38:17.879705Z"}}}